Location: Unspecified
(0.0000°N, 0.0000°E)
Time: 16:48:20
(UTC+00:00)

Cosmos 2058 - Pass Details

Date: 02 May 2019
Orbit: 561 x 585 km, 82.5° (Epoch: 20 May)

Event Time Altitude Azimuth Distance (km) Brightness Sun altitude
Rises 05:17:02 0° 162° (SSE) 2,808 6.5 -9.7°
Reaches altitude 10° 05:19:34 10° 148° (SSE) 1,904 5.8 -9.0°
Maximum altitude 05:22:58 24° 94° (E) 1,231 5.6 -8.2°
Drops below altitude 10° 05:26:20 10° 40° (NE) 1,891 6.5 -7.4°
Sets 05:28:50 0° 26° (NNE) 2,784 7.1 -6.8°
